Temp_Advection
nan nan nan nan nan nan nan nan nan nan nan nan nan nan nan nan nan nan nan nan nan nan nan nan nan nan nan nan nan nan nan nan nan nan nan nan nan nan nan nan nan nan nan nan nan nan nan nan nan nan nan nan nan nan nan nan nan nan nan nan nan nan nan nan nan nan nan nan nan
nan 0 0 -0 -0 -0 -0 -0 -1 -1 -1 -0 -0 -0 -1 -1 -1 -1 -1 -1 -1 -1 -1 -1 -0 -0 -1 -1 -1 -1 -1 -1 -1 -1 -1 -1 -1 -1 -1 -0 -0 -0 -0 -1 -1 -1 -1 -1 -0 0 -0 -0 -1 -1 -1 -1 -1 -1 -2 -1 -1 -0 0 0 -0 -0 0 0 nan
nan 0 0 -0 -0 -1 -1 -1 -1 -1 -0 -0 -0 -0 -0 -1 -1 -1 -1 -1 -1 -0 -0 -1 -1 -0 -0 -0 -1 -1 -1 -1 -1 -1 -1 -1 -1 -1 -1 -0 -0 -0 -0 -1 -1 -1 -1 -1 -0 0 -0 -0 -0 -0 -1 -1 -1 -1 -1 -1 -1 -1 -0 -0 -0 -0 -0 -0 nan
nan 1 0 0 0 -0 -1 -1 -1 -0 0 0 -0 -1 -1 -1 -1 -1 -1 -1 -1 -1 -1 -0 -1 -0 0 0 -0 -0 -0 -0 -0 -0 -1 -1 -1 -1 -1 -0 -0 -0 -1 -1 -1 -1 -1 -1 -0 0 0 -0 -0 -0 -0 -1 -1 -1 -1 -1 -1 -1 -1 -0 -0 -0 -0 -0 nan
nan 0 0 1 1 0 0 0 0 0 0 1 0 -1 -1 -1 -1 -1 -1 -2 -2 -1 -1 -0 -0 -0 0 0 0 0 0 0 0 -0 -0 -0 -0 -1 -1 -1 -0 -0 -1 -1 -1 -1 -1 -1 -1 -0 0 -0 -0 -0 0 -0 -1 -1 -2 -1 -1 -1 -1 -1 -1 -0 -0 -0 nan
nan -0 0 1 1 1 1 1 1 1 1 0 0 0 -0 -1 -1 -1 -1 -1 -1 -2 -1 -1 -1 -0 -0 -0 0 0 0 0 0 0 0 0 -0 -0 -1 -1 -1 -0 -1 -1 -1 -1 -1 -1 -1 -1 -0 -0 -0 -0 0 0 -0 -1 -2 -2 -2 -1 -1 -1 -1 -1 -1 -0 nan
nan -1 -0 0 0 1 1 1 1 1 0 0 0 0 0 -0 -1 -1 -0 -1 -1 -2 -2 -2 -1 -1 -1 -1 -0 -0 -0 -0 -0 0 0 1 0 -0 -1 -1 -1 -1 -1 -1 -1 -1 -1 -1 -1 -1 -0 -0 -0 -0 0 0 0 -0 -1 -2 -2 -2 -2 -1 -1 -1 -1 -1 nan
nan -1 -0 -0 0 0 0 0 0 0 0 0 0 -0 -0 0 -0 -0 -1 -1 -1 -1 -2 -2 -2 -1 -1 -1 -1 -0 -0 -0 -0 -0 -0 0 1 0 -0 -1 -1 -1 -1 -1 -1 -1 -1 -1 -1 -1 -0 -0 -0 -0 0 0 0 0 -0 -1 -2 -2 -2 -2 -2 -1 -1 -1 nan
nan -0 -0 -0 0 0 -0 -0 -0 -0 -0 -0 -0 -0 -0 -0 -0 -1 -1 -1 -1 -1 -2 -2 -2 -2 -1 -1 -1 -1 -0 -0 -1 -1 -1 -0 0 1 0 -1 -1 -1 -1 -1 -1 -1 -1 -1 -1 -1 -0 -0 -0 -0 -0 0 0 0 0 -0 -1 -1 -2 -2 -2 -2 -2 -1 nan
nan -1 -0 -0 -0 -0 -1 -1 -1 -1 -1 -0 -0 -0 -0 -0 -0 -0 -0 -1 -1 -1 -2 -2 -2 -2 -2 -1 -1 -1 -1 -1 -0 -1 -1 -1 0 1 1 -0 -1 -1 -1 -1 -1 -1 -1 -1 -1 -1 -1 -0 -0 -0 -0 0 0 0 0 -0 -1 -1 -1 -2 -1 -1 -2 -2 nan
nan -1 -1 -1 -1 -1 -1 -1 -1 -1 -1 -1 -1 -0 -0 -0 -0 -0 -0 -0 -1 -1 -2 -2 -2 -2 -2 -2 -1 -1 -1 -1 -1 -1 -1 -1 -0 1 1 1 0 -0 -1 -0 -0 -1 -1 -1 -1 -1 -0 -0 -0 -0 -0 0 0 0 0 -0 -0 -1 -1 -2 -2 -2 -1 -1 nan
nan -0 -0 -1 -1 -1 -1 -1 -1 -1 -1 -1 -1 -0 -0 -0 -0 -0 -0 -1 -1 -1 -1 -2 -2 -2 -2 -2 -1 -1 -1 -1 -1 -0 -1 -1 -1 -0 1 1 1 0 -0 0 0 -0 -1 -1 -1 -1 -0 -0 -0 -0 -0 -0 0 0 0 -0 -0 -0 -1 -1 -2 -2 -2 -1 nan
nan -0 -0 -1 -1 -1 -1 -1 -1 -1 -1 -0 -0 -0 -0 -0 -0 -0 -0 -0 -0 -1 -1 -1 -1 -1 -2 -2 -1 -1 -1 -1 -1 -1 -1 -1 -1 -0 -0 0 0 0 0 0 0 0 -0 -0 -0 -0 -0 -0 -0 -0 -0 -0 0 0 0 -0 -0 -0 -0 -0 -1 -1 -2 -2 nan
nan -0 -0 -0 -0 -1 -1 -1 -1 -1 -1 -0 -0 -0 -0 -0 -0 -0 -0 -0 -0 -0 -1 -1 -1 -1 -1 -1 -1 -1 -1 -1 -1 -1 -1 -1 -1 -0 -0 -1 -0 -0 -0 -0 -0 0 0 -0 -0 -0 -0 -0 -0 -0 -0 -0 -0 0 0 -0 -0 -0 -0 -0 -0 -1 -1 -1 nan
nan -0 -0 -0 -0 -0 -0 -1 -1 -1 -0 -0 0 -0 -0 -0 -0 -0 -0 -0 -0 0 -0 -0 -1 -1 -1 -1 -1 -1 -1 -1 -1 -1 -1 -1 -1 -1 -1 -1 -1 -1 -0 -0 -0 -0 0 -0 -0 -0 -0 -1 -1 -1 -0 -0 -0 0 0 0 -0 -0 -0 -0 -0 -0 -1 -1 nan
nan -0 -0 -0 -0 -0 -0 -0 -0 -0 -0 -0 0 0 -0 -0 -0 -0 -0 0 0 0 0 0 -0 -1 -1 -1 -1 -1 -1 -1 -1 -1 -1 -1 -1 -1 -1 -1 -1 -1 -0 -0 -0 -0 -0 -0 -0 -0 -1 -1 -1 -1 -1 -1 -0 -0 0 0 0 -0 -0 -0 -0 -0 -0 -0 nan
nan -0 -0 -0 -0 -0 -0 -0 -0 0 0 0 0 0 0 -0 -0 -0 0 0 0 0 0 0 -0 -1 -1 -1 -1 -1 -1 -1 -1 -1 -1 -1 -1 -1 -1 -1 -1 -1 -0 -0 -0 -1 -0 -0 -0 -1 -1 -1 -1 -1 -1 -1 -1 -0 -0 -0 -0 -0 -0 -0 -0 -0 0 -0 nan
nan -0 -0 -0 -0 -0 -0 -0 0 0 0 0 0 0 0 0 -0 0 0 1 1 0 -0 -0 -0 -0 -0 -1 -1 -1 -1 -1 -1 -1 -1 -1 -1 -1 -1 -1 -1 -1 -0 0 -0 -1 -0 -0 -1 -1 -1 -0 -1 -1 -1 -1 -1 -1 -0 -0 -0 -0 -0 -0 -0 -0 -0 0 nan
nan -0 -0 -0 -0 -0 -1 -0 -0 0 0 0 0 0 0 0 0 0 1 1 1 0 -0 -0 -0 -0 -0 -0 -0 -0 -1 -1 -1 -1 -1 -1 -1 -1 -1 -1 -1 -1 -0 0 -0 -0 -0 -0 -1 -1 -0 -0 -0 -0 -0 -1 -1 -1 -1 -0 -0 -0 -0 -0 -0 -0 -0 -0 nan
nan -0 -0 -0 -0 -1 -1 -1 -1 -0 -0 0 0 0 0 0 0 1 1 1 0 0 0 0 0 0 -0 -0 -0 -0 -0 -0 -1 -1 -1 -1 -1 -1 -1 -1 -1 -1 -1 0 0 -1 -1 -0 0 0 0 -0 -0 -0 -0 -1 -1 -1 -1 -1 -1 -1 -1 -1 -1 -1 -0 -0 nan
nan 0 0 0 -0 -1 -1 -1 -1 -1 -0 0 0 0 0 0 0 1 0 0 0 0 0 0 0 0 -0 -0 -1 -1 -0 -0 -0 -1 -1 -1 -1 -1 -1 -1 -1 -1 -1 0 0 -0 -1 -1 0 1 0 -0 -0 -0 -0 -0 -0 -0 -1 -0 -1 -1 -0 -1 -1 -1 -1 -1 nan
nan 0 0 -0 -0 -0 -0 -0 -0 -0 0 0 0 0 -0 0 0 1 0 0 -0 0 0 0 0 0 -0 -0 -0 -1 -1 -0 -0 -1 -1 -1 -1 -1 -1 -1 -1 -1 -1 -0 1 -0 -1 -2 -1 0 0 -0 0 0 -0 -0 -0 -0 -0 -0 -0 -0 -0 -0 -1 -1 -1 -1 nan
nan 0 0 -0 -0 0 0 -0 0 0 0 1 0 0 0 0 1 0 0 0 -0 -0 -0 -0 -0 -0 -0 -0 0 -0 -0 -1 -1 -0 -0 -1 -1 -1 -1 -1 -1 -1 -1 -0 0 0 -0 -2 -2 -1 -0 -0 -0 0 -0 -0 -0 -0 -0 -0 -0 -0 -0 -0 -0 -1 -1 -1 nan
nan 0 0 -0 0 0 0 0 0 0 0 0 0 0 0 1 1 0 0 -0 -0 -0 -0 -0 -0 -0 -0 0 0 0 -0 -0 -0 -0 -0 -1 -1 -1 -1 -1 -1 -1 -1 -1 0 0 -0 -1 -2 -1 -0 -0 -0 0 0 -0 -0 -0 -0 -0 -0 -0 -0 -0 -0 -1 -1 -1 nan
nan -0 -0 -0 0 0 0 0 1 0 0 0 0 1 1 1 0 -0 -0 -0 -0 -0 -0 -0 -0 -0 -0 -0 0 0 0 0 -0 -0 -0 -1 -1 -1 -1 -1 -1 -1 -1 -1 -0 0 -0 -1 -0 -0 0 0 -0 0 0 -0 -0 -0 -0 -0 -0 -0 -0 -1 -1 -1 -1 -1 nan
nan -1 -0 -0 0 -0 0 1 1 1 0 0 0 1 1 0 -0 -0 -0 -0 -0 -0 -0 -0 -1 -0 -0 -0 -0 -0 -0 -0 -0 -0 -0 -0 -1 -1 -1 -1 -1 -1 -1 -1 -0 -0 -0 0 0 0 0 0 -0 0 0 -0 -0 0 0 -0 -0 -0 -1 -1 -1 -1 -1 -1 nan
nan -1 -1 -0 -0 -0 0 0 0 0 0 -0 0 0 0 -0 -0 -0 -0 -0 -0 -0 -1 -1 -1 -0 -1 -1 -1 -1 -1 -1 -0 -0 -0 0 -0 -1 -1 -1 -1 -1 -1 -1 -0 -0 -0 1 0 -0 -0 -0 -0 0 0 -0 -0 0 -0 -0 -0 -0 -0 -1 -1 -1 -1 -1 nan
nan -1 -1 -1 -1 -0 0 0 0 -0 -0 -0 0 0 0 -0 -0 -0 -0 -0 -0 -0 -1 -1 -0 -0 -0 -1 -1 -1 -1 -1 -1 -0 -0 -0 -0 -0 -1 -1 -1 -1 -1 -1 -0 0 -0 1 -1 -1 -0 -0 -0 -0 -0 -0 -0 -0 -0 -0 -0 -0 -0 -0 -0 -0 -0 -1 nan
nan -0 -1 -1 -1 -0 0 0 -0 -0 -0 -0 -0 -0 -0 -0 -0 -0 -0 -0 -0 -0 -0 -0 -0 -0 -0 -0 -0 -0 -0 -0 -0 -0 -0 -0 -1 -1 -1 -1 -1 -1 -1 -0 0 0 -1 -0 -1 -0 -0 -0 -0 -0 -0 -0 -0 -0 -0 -0 -0 -0 -0 -0 -0 -0 -0 -1 nan
nan -0 -0 -0 -0 -0 -0 -0 -0 -0 -0 -0 -0 -1 -1 -1 -1 -0 -0 -0 -0 0 0 0 -0 -0 0 0 0 0 0 -0 -0 -0 -0 -1 -1 -1 -1 -1 -1 -1 -1 -0 0 0 -1 -1 -0 -0 -0 -0 0 0 0 -0 -0 -0 -0 -0 -0 -0 -0 -0 -0 -0 -0 -1 nan
nan 0 -0 -0 -0 -0 -0 -0 -0 -0 -0 -0 -1 -1 -1 -1 -1 -1 -0 -0 -0 -0 0 0 -0 -0 -0 0 0 0 0 0 -0 -0 -0 -0 -0 -1 -1 -1 -1 -1 -1 -1 0 1 0 -0 0 0 -0 -0 0 0 0 -0 -0 -0 -0 -0 0 -0 -0 -0 -0 -0 -1 -1 nan
nan 0 0 -0 -0 -0 -0 -0 -0 -0 -0 -0 -1 -1 -1 -1 -1 -0 -0 -0 -0 -0 -0 -0 -0 -0 -0 -0 -0 0 0 -0 -0 -0 0 1 0 -0 -0 -0 0 0 -0 -0 1 1 1 0 1 0 -0 -0 0 0 -0 -0 -0 -0 -0 0 0 0 -0 -0 -0 -0 -0 -0 nan
nan 0 0 0 -0 -0 -0 -0 -0 -0 -0 -0 -0 -1 -1 -1 -1 -1 -1 -0 -0 0 -0 -0 -0 -0 -1 -1 -0 -0 0 -0 -0 -0 0 1 1 1 0 -0 -0 0 1 1 1 1 0 -0 0 -0 -0 -0 -0 -0 -0 -0 -0 -0 0 0 0 -0 -0 -0 -0 -0 -1 -0 nan
nan -0 -0 0 -0 -0 -0 -1 -0 -0 -0 -0 -0 -0 -0 -1 -1 -2 -1 -1 -0 -0 0 0 -0 -0 -0 -0 -0 -0 -0 -0 -0 -0 0 1 1 1 1 0 -0 0 1 1 0 -0 -1 -1 -1 -0 -0 -0 -0 -0 -0 -0 -0 -0 0 0 0 -0 -0 0 -0 -1 -1 -0 nan
nan -1 -0 -0 -0 -0 -1 -1 -1 -1 -1 -0 -0 -1 -1 -1 -1 -1 -1 -1 -1 -0 0 0 0 -0 0 -0 -0 -0 -0 -0 -0 -0 0 0 0 0 1 1 0 0 0 0 -1 -1 -1 -1 -1 -0 -0 -0 -0 -0 -0 -0 -0 -0 0 0 0 0 -0 -0 -1 -1 -1 -0 nan
nan -1 -1 -1 -1 -1 -1 -1 -1 -1 -1 -1 -1 -1 -1 -1 -1 -1 -1 -1 -1 -1 -0 -0 -0 -0 -0 -0 -1 -1 -0 -0 -0 -0 -0 0 0 0 0 0 0 0 -0 -1 -2 -1 -1 -1 -1 -0 -0 -0 -0 -0 -0 -0 -0 -0 -0 -0 -0 -0 -0 -0 -1 -1 -1 -0 nan
nan -1 -1 -1 -1 -1 -1 -1 -2 -2 -2 -1 -1 -0 -1 -1 -1 -1 -1 -2 -2 -1 -1 -0 -0 -0 -0 -0 -1 -1 -0 -0 -0 -0 -0 -0 -0 -0 -0 0 0 -0 -0 -1 -1 -1 -1 -1 -0 -0 -0 -0 -0 -0 -0 -0 -0 -0 -0 -0 -0 -0 -0 -0 -1 -1 -1 -0 nan
nan -0 -1 -1 -1 -1 -1 -1 -1 -1 -1 -1 -1 -0 -0 -1 -1 -1 -1 -2 -2 -2 -1 -1 -1 -0 -0 -0 -1 -1 -1 -1 -0 0 -0 -0 -0 -0 -0 -0 -0 -0 -0 -0 -1 -1 -1 -1 -1 -0 -0 -0 -0 -0 -0 -0 -0 -0 -0 -0 -0 -0 0 -0 -0 -1 -0 -0 nan
nan -0 -1 -1 -1 -1 -1 -1 -1 -1 -1 -1 -1 -1 -0 -0 -0 -1 -1 -1 -1 -1 -1 -1 -1 -0 -0 -0 -1 -1 -1 -1 -0 -0 -0 -0 -0 -0 -0 -0 -0 -0 -0 -0 -0 -1 -1 -1 -1 -0 -0 -0 -0 -0 -0 -0 -0 -0 -0 0 0 0 0 0 -0 -0 -0 -0 nan
nan -1 -1 -0 -1 -1 -1 -1 -0 -0 -0 -1 -1 -1 -1 -0 -0 -0 -0 -1 -1 -1 -1 -1 -1 -0 -0 -0 -0 -1 -1 -1 -1 -0 0 0 0 -0 -0 -1 -1 -1 -1 -1 -1 -1 -1 -1 -1 -0 -0 -0 -0 -0 -0 -0 -0 -0 -0 0 0 0 0 -0 0 -0 -0 -0 nan
nan nan nan nan nan nan nan nan nan nan nan nan nan nan nan nan nan nan nan nan nan nan nan nan nan nan nan nan nan nan nan nan nan nan nan nan nan nan nan nan nan nan nan nan nan nan nan nan nan nan nan nan nan nan nan nan nan nan nan nan nan nan nan nan nan nan nan nan nan
Wind_Speed
23 23 23 24 24 23 23 23 23 24 25 26 26 26 24 24 24 24 24 25 26 28 29 30 29 29 29 28 27 26 26 26 25 24 24 23 24 25 26 27 28 28 28 29 29 29 29 30 30 29 27 26 25 25 24 24 24 25 25 26 27 27 28 26 26 25 24 24 24
25 25 25 25 24 24 23 23 24 25 27 27 26 25 23 23 23 24 25 26 27 28 29 29 29 29 29 28 27 26 26 26 26 25 24 23 24 25 26 27 28 28 28 28 29 29 29 29 29 29 28 27 26 25 24 23 23 24 24 24 24 25 26 26 25 24 24 24 23
26 26 26 25 24 24 24 24 25 27 28 28 26 24 22 22 22 24 25 27 28 28 28 28 29 29 29 28 27 26 26 26 26 25 24 24 24 24 25 26 28 28 28 28 28 28 28 29 29 29 28 28 27 26 26 25 24 23 22 21 21 21 23 24 24 24 24 24 23
28 27 26 26 25 25 25 25 26 27 28 27 25 23 22 22 23 24 26 27 27 27 28 28 29 29 28 28 27 26 26 26 25 25 24 24 23 24 25 26 27 28 29 28 28 28 27 28 28 28 28 28 28 27 26 26 26 25 23 21 18 18 20 22 23 24 24 25 24
29 28 27 26 26 25 25 26 27 28 28 26 24 23 22 23 24 25 26 27 27 27 27 27 27 27 27 27 27 26 26 26 25 25 25 24 23 24 25 26 27 28 29 29 28 27 27 27 27 28 28 28 28 27 27 26 26 26 25 23 20 17 17 18 20 22 23 25 25
29 29 28 27 27 26 26 27 27 27 27 25 23 22 22 23 24 25 26 27 27 27 27 27 27 27 27 27 26 26 26 26 26 26 25 24 24 24 25 26 27 28 29 29 28 27 27 27 27 27 27 28 28 28 27 26 25 26 27 26 23 20 17 16 16 18 20 23 24
29 28 28 27 27 27 27 27 27 27 26 24 23 22 23 24 25 25 26 26 26 27 27 27 27 27 26 26 26 26 26 26 25 25 25 25 24 24 25 26 27 28 29 29 29 28 27 27 26 26 27 27 28 28 27 26 25 25 26 26 26 23 20 17 15 14 15 17 19
29 28 28 27 27 27 27 27 27 26 25 23 23 23 23 24 25 26 26 27 27 27 27 28 27 27 26 26 25 25 25 25 25 25 25 25 25 25 26 26 27 27 28 29 29 28 27 27 26 25 25 26 27 27 27 26 25 24 25 25 26 25 23 21 18 16 15 14 14
29 28 28 27 27 27 27 27 26 25 24 23 23 23 24 25 26 27 27 27 27 28 28 28 28 27 26 25 24 24 24 25 25 25 25 25 25 26 26 27 27 28 28 29 29 29 28 27 25 24 23 24 25 26 26 26 25 24 24 24 25 25 25 23 21 20 19 19 18
29 28 28 28 28 27 27 26 26 25 24 24 24 25 25 26 27 27 27 27 28 28 28 28 28 27 26 25 24 24 24 24 24 24 24 25 25 26 27 28 28 29 29 29 29 29 28 27 24 22 22 22 23 24 25 25 25 24 23 23 23 24 25 24 22 20 20 20 20
29 29 29 29 28 28 27 26 26 25 25 25 25 26 27 27 27 27 27 27 28 28 29 28 28 27 27 26 25 24 24 23 23 23 24 24 25 26 27 28 29 29 29 29 30 29 28 26 23 20 20 21 22 23 24 25 24 24 23 22 22 23 24 24 23 21 20 19 19
29 29 29 29 29 28 27 27 26 26 26 26 26 27 27 28 28 28 28 28 29 29 29 28 28 27 27 26 25 24 24 23 23 23 23 23 24 25 27 28 29 29 29 29 29 29 27 23 20 19 19 19 21 22 23 24 24 24 23 22 22 22 23 24 24 23 21 20 19
29 30 30 30 29 28 27 27 27 27 27 27 27 28 28 28 28 28 29 29 30 30 30 29 28 28 27 26 25 24 24 23 23 22 22 22 23 25 27 28 29 29 28 29 29 27 24 20 17 17 18 19 20 21 22 23 24 24 24 23 22 21 22 22 23 23 22 21 20
30 30 30 30 29 28 27 27 27 27 27 28 28 28 28 29 29 29 29 30 30 31 30 30 29 28 27 26 25 24 24 23 22 21 21 21 23 24 26 28 28 28 27 28 28 26 21 17 15 16 17 18 20 21 21 22 23 23 23 23 22 21 21 21 22 22 22 22 21
30 30 30 30 29 28 27 28 28 28 28 29 29 28 29 29 29 30 30 31 31 31 31 30 29 28 27 25 25 24 23 22 22 21 21 21 22 24 26 27 28 27 26 27 27 24 19 15 15 16 17 18 19 20 21 21 22 22 22 22 22 21 20 20 20 21 21 21 21
31 31 30 29 28 28 28 28 28 28 29 29 29 29 29 29 30 31 31 32 32 31 31 30 29 28 27 26 24 24 23 22 21 21 21 21 23 24 26 27 27 26 25 26 27 23 18 15 15 17 18 18 19 19 19 20 21 21 21 21 21 20 19 19 18 19 19 20 20
31 31 30 29 28 28 28 28 29 29 29 30 29 29 29 29 31 31 32 32 32 31 31 30 29 28 27 26 24 23 22 22 21 21 21 22 23 25 26 26 26 25 24 25 27 24 19 15 17 18 19 19 19 18 18 19 19 20 20 20 19 19 18 18 17 17 18 18 18
31 31 30 29 29 28 29 29 29 30 30 30 30 29 29 30 31 32 32 32 31 31 30 29 28 27 26 25 24 23 22 22 22 22 22 23 24 25 25 25 24 24 23 24 27 25 20 16 17 19 20 20 19 19 18 18 18 18 18 18 18 18 17 17 16 16 16 17 17
31 31 30 29 29 29 29 30 30 31 31 31 30 29 29 30 31 32 32 32 31 30 29 29 28 27 25 24 23 23 23 23 23 22 22 23 24 24 25 24 24 23 23 24 26 26 22 17 17 19 20 21 20 19 18 17 17 17 16 16 16 16 16 16 16 15 15 16 17
31 31 30 30 29 30 30 30 31 31 32 31 30 30 30 31 32 32 32 31 30 29 29 28 28 26 25 23 23 23 23 23 23 23 23 24 24 25 25 24 24 24 24 24 26 27 25 20 18 18 20 22 21 20 18 17 16 15 15 15 15 15 15 16 15 15 15 15 16
31 31 30 30 30 30 30 31 31 32 32 32 31 30 30 31 32 32 31 30 29 28 28 28 28 26 25 24 24 24 24 24 24 24 24 25 25 25 25 25 25 24 24 24 25 27 29 26 21 19 20 22 21 20 17 16 14 14 13 13 14 15 15 15 16 15 15 15 15
31 30 30 30 30 30 30 31 31 32 32 32 31 30 30 31 31 31 30 28 28 28 28 29 28 27 25 25 24 24 24 25 25 25 26 26 27 27 26 25 25 24 24 24 25 28 31 31 25 21 19 21 21 19 16 14 13 12 12 13 14 15 16 16 16 16 16 15 15
31 30 30 30 30 30 31 31 31 32 32 32 31 30 30 31 31 30 28 27 27 28 29 29 28 27 26 25 24 24 25 25 26 26 27 28 29 28 27 26 25 24 24 24 25 27 31 33 30 24 19 19 19 17 14 12 12 12 13 14 15 16 17 17 17 17 17 16 16
31 31 31 31 31 31 31 31 31 32 32 32 31 30 30 31 30 29 28 27 27 28 29 29 29 28 26 25 24 24 25 26 27 28 29 30 31 31 29 27 26 25 24 24 24 26 30 34 34 28 20 16 17 16 13 11 12 13 14 15 16 17 18 18 18 18 17 17 16
31 31 31 31 31 31 31 31 31 32 32 31 30 30 30 30 30 28 27 26 27 28 29 30 29 28 27 25 25 24 25 26 28 29 30 31 32 32 31 29 27 25 24 24 23 25 30 35 36 28 18 13 14 14 12 10 12 14 16 17 18 19 19 19 19 18 18 17 17
32 32 32 32 32 31 31 31 31 32 32 31 30 30 30 30 29 28 26 26 27 28 29 29 29 28 27 26 25 25 25 26 27 29 30 31 32 33 32 30 28 26 25 24 23 26 31 37 34 24 14 11 13 13 11 10 12 15 16 17 18 19 20 20 20 19 19 18 17
32 33 32 32 32 32 32 31 31 32 32 31 30 30 30 30 29 27 26 25 26 28 29 29 29 28 27 27 26 26 26 26 27 28 29 30 32 32 32 31 29 27 26 25 24 26 32 37 31 19 11 10 12 13 11 10 11 14 16 17 18 19 20 20 20 20 20 19 18
33 33 33 33 33 33 32 32 32 32 32 31 30 30 30 30 29 27 25 24 25 27 28 29 29 28 27 27 26 26 26 27 27 28 29 30 31 31 30 30 29 27 26 25 25 27 32 36 26 16 11 11 12 12 12 10 11 13 15 16 17 18 19 20 21 20 20 19 18
32 33 33 33 33 33 33 32 32 32 32 31 30 30 30 29 29 27 25 24 24 26 27 28 28 28 27 27 26 26 26 26 27 28 29 30 30 30 29 28 28 27 25 24 24 26 31 34 23 14 11 11 11 12 12 10 11 12 15 16 17 17 18 19 20 19 19 19 19
32 32 33 33 33 33 33 33 33 32 32 31 31 30 30 30 29 27 26 24 24 24 26 27 27 27 27 27 26 26 26 26 27 28 29 30 30 30 29 28 27 25 24 23 23 26 30 34 24 15 11 11 11 11 11 11 10 12 14 16 16 16 17 19 20 19 19 20 21
31 32 32 33 33 33 33 33 33 33 32 31 31 30 30 30 29 28 26 24 24 24 24 26 26 27 27 27 27 26 25 26 26 28 29 30 30 30 29 28 27 25 23 22 23 27 32 34 25 16 11 10 10 11 11 10 10 11 13 15 15 15 17 19 19 19 20 22 23
31 31 32 32 33 33 33 33 33 33 32 31 30 30 30 30 29 28 26 25 24 24 24 25 26 27 28 28 28 27 26 26 26 27 28 29 29 30 29 29 27 25 23 22 24 30 35 35 24 15 10 9 9 10 10 10 9 11 13 15 14 15 17 19 19 20 21 23 24
30 31 32 32 33 33 33 33 33 33 32 31 30 29 29 30 30 29 27 26 25 24 24 25 26 27 28 28 28 27 26 26 26 27 28 29 29 29 29 29 28 26 24 24 27 34 39 34 22 13 10 9 9 9 9 9 9 10 12 14 14 16 17 19 19 20 22 23 24
30 31 31 32 32 33 33 34 33 33 32 30 29 28 29 29 30 30 29 27 26 25 24 25 26 26 27 28 28 27 27 26 26 26 27 29 29 30 30 29 28 26 25 27 31 38 40 31 18 13 11 10 10 9 8 8 8 10 11 13 15 16 17 18 19 21 22 23 23
30 30 31 32 32 33 33 34 33 33 31 30 28 27 28 29 29 30 29 28 26 25 25 25 25 26 26 26 27 26 26 26 26 26 26 28 30 30 30 29 28 26 26 29 33 39 39 29 18 13 13 11 10 9 8 8 8 9 10 13 16 18 19 20 21 22 23 24 24
30 30 31 32 32 33 33 33 33 32 30 29 27 26 27 28 29 29 29 28 27 26 25 25 25 25 26 26 26 25 25 25 25 25 25 27 29 30 29 29 28 26 27 31 34 39 38 30 19 14 13 12 10 9 8 8 8 8 9 11 16 20 23 24 24 25 25 25 25
30 30 31 32 32 32 32 33 32 31 30 28 26 25 26 27 28 29 29 28 27 26 25 25 25 26 26 26 26 25 24 24 24 24 25 26 28 29 28 28 27 26 27 30 34 38 39 32 21 14 12 11 10 9 8 9 9 9 9 10 14 18 21 22 23 25 26 26 26
30 30 31 31 32 32 32 32 31 30 28 27 25 24 24 26 27 28 28 28 27 26 26 25 25 25 25 25 25 24 23 23 23 23 24 25 27 27 26 26 25 24 25 28 32 37 39 35 23 15 10 9 9 9 9 9 10 10 11 12 14 16 17 17 19 21 23 25 25
30 31 31 31 31 31 31 31 30 29 27 25 24 24 24 25 26 26 27 27 26 26 25 25 25 25 25 24 24 23 22 22 22 22 23 24 26 25 24 23 23 23 23 25 30 35 39 37 26 15 9 9 9 9 9 9 10 11 12 13 14 15 16 16 16 18 20 22 23
31 31 31 31 31 31 30 29 28 27 26 24 24 24 24 25 25 25 26 26 25 25 24 24 24 24 24 24 22 22 21 21 22 21 21 23 24 24 23 21 21 21 22 23 28 33 37 38 29 17 9 8 9 9 9 9 10 11 12 13 14 15 15 16 16 16 17 19 21
31 31 31 31 30 30 29 28 27 26 25 24 24 24 24 24 24 24 24 24 24 24 23 23 23 23 23 22 21 20 20 21 22 21 19 21 23 23 22 20 20 21 22 23 27 31 35 38 33 22 11 8 9 9 9 9 9 10 12 12 13 14 15 15 15 15 16 18 20
Wind_Direction
344 341 339 338 338 336 334 332 331 331 331 332 332 333 332 330 328 327 326 326 326 326 327 328 328 328 330 331 332 331 330 330 331 333 335 337 337 334 331 331 334 336 337 336 335 335 335 336 337 337 338 339 338 334 331 328 323 317 311 304 298 296 295 291 289 288 287 284 279
343 342 340 339 337 335 333 331 330 330 330 332 333 332 330 328 327 325 325 326 326 327 328 328 328 328 329 330 331 331 329 328 329 331 334 336 336 332 329 330 334 336 336 335 335 334 334 335 336 338 339 340 338 337 335 333 328 322 316 309 301 295 290 287 284 284 286 286 284
343 342 341 339 337 335 332 330 329 329 330 332 333 333 330 328 326 325 325 326 328 329 329 328 329 329 329 330 330 330 328 327 328 329 332 333 333 331 328 329 333 335 336 335 335 334 334 334 335 337 339 340 339 338 338 337 335 332 326 317 307 297 290 286 282 281 282 284 285
343 342 341 339 336 334 331 329 328 328 330 332 333 332 330 327 325 325 326 327 329 330 330 329 329 329 329 329 329 328 327 326 326 328 329 331 331 329 328 329 332 333 334 334 334 334 334 333 334 336 338 339 339 338 338 338 339 339 336 327 315 304 295 289 285 283 282 283 284
343 342 341 339 336 334 332 330 328 329 331 333 333 332 330 328 326 327 328 329 329 330 330 330 330 329 329 328 328 327 326 326 326 327 328 329 329 329 329 329 330 331 332 333 333 334 333 332 333 335 337 337 339 339 339 338 339 341 341 337 327 316 304 296 290 286 284 285 285
343 343 341 340 338 335 333 331 330 331 332 334 334 332 330 329 329 329 330 330 330 330 331 331 330 329 328 328 327 326 325 325 325 326 328 330 330 330 330 329 328 328 329 330 332 333 333 332 333 334 335 336 338 340 341 341 340 340 341 340 336 327 315 306 298 291 287 286 284
344 343 342 341 339 337 335 333 333 334 335 337 336 334 332 331 331 332 332 332 331 331 331 331 331 330 328 327 326 325 324 324 324 326 329 331 332 331 330 329 327 326 326 328 331 333 333 332 332 333 334 335 336 338 341 343 342 340 339 339 338 334 324 311 299 291 288 287 284
346 345 344 342 341 339 338 337 337 338 339 340 339 337 336 335 335 335 334 334 333 333 332 331 330 329 328 326 324 323 322 322 323 326 329 332 334 334 333 330 327 325 325 327 330 333 333 331 331 331 332 333 335 337 340 343 343 341 339 337 338 336 331 320 307 294 285 282 280
347 347 346 345 344 342 342 341 342 343 344 344 343 341 340 339 338 337 336 335 334 334 333 331 330 329 327 325 323 321 320 320 321 325 328 332 334 334 333 331 327 325 324 327 331 333 333 331 329 329 330 332 334 337 340 342 342 341 339 337 335 335 333 328 318 306 293 283 276
349 348 348 347 346 346 346 346 347 348 348 347 346 344 343 342 340 339 338 336 335 334 333 331 330 329 327 326 323 321 319 319 320 323 326 330 332 333 332 330 327 325 326 329 333 335 333 331 329 329 330 332 334 337 340 341 341 341 340 337 334 333 333 331 325 317 306 295 285
350 350 349 349 349 349 350 350 351 351 351 350 348 346 345 343 343 342 341 340 337 335 334 333 331 330 328 327 324 322 319 318 318 320 323 327 330 330 329 327 325 325 328 332 336 337 334 331 329 330 332 334 336 339 341 342 342 341 340 338 335 334 334 332 328 323 316 307 298
350 351 351 351 352 352 353 354 354 354 353 352 349 348 346 345 345 345 344 342 339 337 336 335 333 331 329 327 325 323 320 318 317 318 321 324 326 326 325 323 323 325 330 335 339 338 336 332 331 333 336 338 340 342 343 342 342 341 340 339 337 337 337 335 331 327 322 315 307
351 352 352 353 354 355 355 356 356 355 354 352 350 348 347 347 348 348 346 343 341 339 338 337 334 332 330 328 326 324 322 319 318 317 318 320 322 321 321 320 322 326 332 337 341 340 337 335 336 338 340 342 345 346 345 343 342 342 341 339 339 340 339 338 334 330 326 320 313
352 353 354 354 355 356 357 357 356 355 354 352 350 349 349 348 349 349 347 344 342 341 339 337 335 333 331 329 327 325 323 321 318 317 316 317 317 317 317 319 323 327 333 338 342 342 340 339 341 343 345 346 347 348 346 344 343 342 341 339 338 339 340 340 337 334 329 325 319
353 354 355 355 356 357 358 358 357 355 353 351 350 350 349 349 349 349 347 345 343 341 339 338 336 334 332 331 329 327 324 322 320 318 316 315 314 314 316 320 324 329 333 339 343 343 342 343 346 348 349 348 348 347 346 344 343 341 341 339 338 338 339 341 341 338 335 330 325
354 355 355 356 357 359 359 359 357 355 353 351 351 350 350 349 349 349 348 345 343 342 340 339 337 336 334 332 331 329 326 324 323 320 318 315 314 315 319 323 327 330 333 338 343 345 344 345 349 350 349 346 344 343 343 342 341 340 339 339 338 338 339 341 344 344 341 337 331
355 355 356 357 358 360 0 359 357 355 353 351 351 351 351 350 350 349 347 346 344 342 341 340 339 337 336 334 332 331 330 329 327 324 321 319 319 321 324 328 329 330 331 335 342 346 347 348 352 352 347 341 339 338 338 338 338 338 338 338 339 339 339 341 345 348 349 345 339
355 356 356 357 359 1 1 360 358 356 354 352 351 352 352 352 350 349 347 347 345 343 342 341 340 339 337 336 336 336 335 334 331 328 326 324 325 327 330 331 330 329 328 331 340 347 351 352 353 351 346 340 336 335 334 334 334 335 337 338 340 341 341 342 346 352 355 355 350
356 356 357 358 360 1 0 360 358 356 354 353 352 353 354 353 351 349 348 347 346 345 343 342 341 340 340 340 341 341 340 339 336 333 330 330 331 333 335 334 330 328 326 328 338 348 356 357 354 349 344 341 337 333 332 332 333 335 337 339 342 344 344 345 348 353 358 0 360
356 356 357 359 360 0 360 359 358 356 354 353 353 354 354 354 352 350 349 348 347 346 345 344 343 343 344 346 346 346 345 344 342 339 337 336 338 340 339 336 331 328 326 327 336 349 358 360 354 347 343 342 337 333 331 332 335 338 341 343 346 348 349 350 351 353 356 359 3
355 356 357 359 360 360 359 358 357 356 354 353 354 355 355 354 352 351 350 349 348 348 347 346 346 347 350 351 352 351 350 349 348 347 345 343 345 345 343 337 332 328 326 328 335 348 357 358 351 344 342 342 337 333 332 335 340 344 346 349 352 354 355 356 356 355 354 355 358
355 356 357 359 360 359 359 358 356 355 353 353 354 355 355 354 352 352 351 351 350 350 349 348 349 352 354 355 355 354 353 353 353 352 351 350 350 349 345 338 332 328 326 328 336 348 355 354 346 339 338 340 337 334 334 341 347 352 354 356 358 359 1 3 3 1 358 356 353
355 356 358 359 359 359 358 357 355 354 353 353 355 355 355 353 353 353 353 353 352 351 351 351 352 354 356 356 355 355 355 355 355 354 354 353 352 351 346 340 333 329 327 329 337 347 352 349 343 336 332 334 335 334 337 349 358 2 3 4 4 5 7 9 10 9 6 2 356
354 356 358 359 359 359 358 356 354 353 352 354 355 355 354 353 354 354 354 354 354 353 352 353 354 355 356 356 355 355 355 356 355 355 354 353 352 351 347 341 334 329 327 329 337 345 348 344 340 334 328 329 332 333 337 355 8 11 10 10 9 10 11 14 17 17 14 10 4
355 357 358 359 359 358 357 356 354 352 352 353 355 355 354 355 355 355 355 355 354 354 353 354 355 356 356 356 355 355 355 355 355 355 353 351 350 350 347 342 336 330 326 327 334 342 346 344 340 335 329 328 331 331 336 357 13 16 16 14 13 13 14 17 20 22 21 18 13
355 357 358 359 359 358 357 355 353 352 352 353 354 355 355 356 356 355 355 355 354 354 354 354 355 356 357 357 356 356 355 355 354 354 352 350 350 349 347 343 337 331 326 326 331 338 344 346 344 341 337 334 334 332 335 354 13 19 20 18 15 14 15 19 22 24 24 22 20
356 357 358 358 359 359 357 355 353 352 352 353 354 355 356 356 356 355 355 355 354 354 354 355 356 357 357 358 359 359 358 357 355 354 353 351 351 351 349 345 339 332 327 326 329 336 344 349 351 350 346 342 338 335 337 352 11 20 21 19 15 14 16 20 24 25 23 21 21
356 357 357 358 359 358 357 355 353 352 351 352 353 354 355 356 356 355 355 354 354 354 354 355 357 357 358 359 0 1 0 359 357 356 354 354 354 353 352 348 342 335 329 328 331 337 346 352 355 355 349 346 343 340 341 352 8 17 18 17 13 13 16 23 28 26 22 18 21
355 355 356 357 358 357 356 355 353 351 351 351 352 353 354 355 356 355 354 353 353 352 353 354 356 358 359 360 0 1 1 0 360 358 357 357 356 355 355 353 348 341 334 332 334 340 347 354 356 353 347 347 346 345 348 357 8 13 13 13 13 14 20 27 31 29 23 21 23
353 353 354 356 356 356 355 354 352 351 350 350 350 351 353 354 355 356 355 353 351 350 350 351 354 356 358 359 359 0 1 1 1 0 359 357 356 356 356 357 354 348 342 338 339 342 347 352 354 352 347 348 349 350 354 2 9 10 9 11 15 20 27 34 36 33 28 26 26
351 351 352 353 353 353 353 352 351 350 349 349 349 350 351 352 354 355 354 352 350 348 347 348 349 352 355 356 358 360 1 2 2 1 358 355 354 355 356 358 359 356 351 346 344 344 346 350 351 352 351 352 354 355 358 5 11 10 9 13 20 30 37 39 39 36 33 31 30
348 348 349 349 349 349 349 350 349 349 349 348 349 349 349 350 351 353 353 352 349 347 345 344 345 347 350 352 355 358 1 2 1 360 358 355 354 354 355 357 0 3 2 358 354 350 348 348 351 356 360 359 359 0 3 8 12 12 13 19 31 41 46 45 43 40 37 35 33
345 345 346 345 345 345 346 346 347 347 347 347 347 347 347 347 348 350 352 352 350 347 344 343 342 344 346 348 351 355 359 0 359 359 358 358 356 355 355 355 360 6 11 10 5 357 352 350 357 8 13 8 7 6 6 9 13 16 20 29 44 53 55 51 49 45 42 39 36
342 342 342 341 341 341 342 343 343 344 345 345 345 345 345 345 347 348 350 350 349 347 345 343 342 342 343 344 346 350 355 357 357 357 358 359 358 357 356 356 360 8 16 18 11 2 357 356 7 21 22 16 13 11 9 10 14 20 28 40 55 63 63 59 55 50 46 42 39
340 339 338 338 337 338 338 339 340 341 342 343 343 343 344 344 345 347 348 348 348 347 346 344 343 342 341 342 343 347 352 355 354 356 359 0 0 359 358 358 1 9 18 21 14 6 1 3 13 23 23 19 17 14 11 12 16 22 32 45 56 62 63 60 57 53 47 43 40
338 337 335 335 335 335 336 337 338 339 340 341 341 341 342 343 344 345 346 346 347 347 346 345 344 342 341 341 342 346 351 353 352 355 358 0 1 0 359 359 1 8 17 21 14 8 5 6 10 17 21 22 21 18 14 15 19 22 28 40 49 52 53 53 53 50 45 41 39
337 336 335 334 334 334 335 336 336 337 338 339 340 340 341 342 343 344 345 346 346 347 346 346 345 343 342 341 343 347 351 351 351 353 357 0 2 1 360 359 0 6 14 19 14 9 7 7 7 12 19 24 25 22 19 19 22 23 24 30 38 43 45 45 45 43 41 38 37
337 337 336 335 335 335 335 335 336 336 337 338 339 340 341 341 342 343 344 346 347 347 346 346 346 345 344 343 345 348 351 350 351 353 355 359 3 3 1 360 1 4 11 17 14 11 9 9 8 11 21 31 33 30 25 25 26 27 27 29 34 38 40 38 38 38 38 38 38
339 339 339 338 337 337 336 336 336 337 338 339 339 341 341 342 341 341 343 345 347 347 346 345 346 346 346 345 347 351 352 349 351 353 355 359 3 4 3 2 2 5 9 14 14 12 11 11 10 12 24 40 42 36 30 29 29 29 30 32 36 39 40 39 38 38 39 40 41
341 340 340 340 339 338 337 336 337 339 340 341 341 342 343 342 341 340 342 343 346 347 347 346 346 347 347 347 349 352 352 347 351 354 356 359 4 5 5 5 6 8 11 15 15 12 11 12 12 15 27 46 46 41 35 31 30 31 31 34 36 38 40 40 40 40 41 42 43
342 341 340 340 339 338 338 338 340 342 344 345 345 344 343 342 341 341 342 344 345 347 347 347 347 348 348 348 350 352 350 346 351 356 359 1 5 7 7 8 11 13 16 18 16 12 11 13 15 19 29 47 48 43 38 34 32 31 32 33 36 39 40 41 41 42 44 46 46
Height
1530 1528 1527 1525 1523 1521 1520 1518 1516 1514 1513 1510 1508 1506 1504 1503 1501 1499 1498 1496 1494 1492 1489 1487 1485 1483 1481 1479 1478 1476 1475 1473 1472 1471 1469 1468 1467 1466 1465 1463 1461 1459 1458 1456 1454 1452 1450 1448 1446 1444 1442 1440 1438 1436 1435 1434 1433 1432 1431 1429 1428 1426 1425 1424 1423 1422 1422 1421 1421
1529 1527 1526 1524 1523 1521 1519 1517 1515 1513 1512 1509 1508 1506 1504 1503 1501 1499 1497 1495 1493 1491 1489 1487 1485 1483 1481 1479 1477 1476 1474 1472 1471 1469 1468 1467 1466 1465 1464 1462 1460 1458 1457 1455 1453 1451 1449 1447 1445 1443 1441 1439 1437 1435 1433 1432 1431 1430 1428 1428 1426 1425 1424 1422 1421 1420 1420 1419 1419
1528 1526 1525 1523 1522 1520 1518 1516 1514 1512 1510 1508 1507 1505 1504 1503 1501 1499 1497 1494 1493 1490 1488 1486 1484 1482 1480 1478 1476 1475 1473 1472 1470 1468 1467 1466 1465 1464 1463 1461 1459 1458 1456 1454 1452 1450 1448 1446 1444 1442 1440 1438 1436 1434 1432 1431 1429 1428 1426 1425 1424 1423 1422 1421 1420 1419 1418 1418 1418
1527 1525 1523 1522 1521 1519 1517 1515 1513 1511 1509 1507 1506 1504 1503 1502 1500 1498 1495 1493 1491 1489 1488 1485 1483 1481 1479 1477 1475 1473 1472 1471 1469 1468 1466 1465 1464 1463 1462 1460 1458 1457 1455 1453 1451 1449 1448 1445 1443 1441 1439 1437 1435 1433 1431 1429 1428 1426 1424 1423 1422 1422 1421 1420 1419 1418 1417 1417 1416
1525 1524 1522 1521 1519 1518 1516 1514 1512 1510 1508 1506 1504 1503 1502 1500 1498 1496 1494 1492 1490 1488 1487 1484 1483 1480 1478 1476 1474 1472 1471 1469 1468 1467 1465 1464 1463 1462 1460 1459 1458 1456 1454 1452 1450 1448 1446 1444 1442 1440 1438 1436 1434 1433 1431 1428 1427 1425 1423 1422 1421 1420 1419 1419 1418 1417 1416 1415 1414
1524 1523 1521 1519 1518 1516 1514 1512 1510 1508 1506 1505 1503 1502 1500 1499 1497 1495 1493 1491 1489 1487 1485 1483 1481 1479 1477 1475 1473 1471 1469 1468 1467 1466 1464 1463 1462 1460 1459 1458 1457 1455 1453 1451 1449 1447 1445 1443 1441 1439 1437 1435 1433 1431 1429 1428 1426 1424 1422 1420 1419 1418 1418 1417 1417 1416 1415 1414 1413
1523 1521 1520 1518 1516 1514 1513 1511 1508 1507 1505 1503 1502 1501 1499 1497 1496 1494 1492 1490 1488 1486 1484 1482 1480 1478 1476 1474 1472 1470 1468 1467 1466 1464 1463 1462 1460 1459 1458 1457 1455 1454 1452 1450 1448 1446 1444 1442 1440 1438 1436 1435 1433 1431 1428 1427 1425 1423 1421 1419 1418 1417 1416 1415 1414 1413 1413 1413 1412
1522 1520 1518 1517 1515 1513 1511 1509 1507 1505 1503 1502 1501 1499 1498 1496 1494 1492 1490 1488 1487 1485 1483 1481 1479 1477 1475 1473 1471 1469 1468 1466 1464 1463 1462 1460 1459 1457 1456 1455 1454 1453 1451 1448 1447 1445 1443 1441 1439 1437 1436 1434 1432 1430 1428 1426 1424 1422 1420 1419 1417 1416 1414 1413 1412 1411 1410 1410 1409
1521 1519 1518 1516 1514 1512 1510 1508 1506 1504 1503 1501 1499 1498 1496 1495 1493 1491 1489 1487 1486 1484 1482 1480 1478 1476 1474 1473 1470 1468 1467 1465 1463 1462 1460 1459 1457 1456 1455 1453 1453 1451 1449 1447 1445 1443 1441 1439 1438 1436 1434 1433 1431 1429 1427 1425 1423 1421 1420 1418 1416 1415 1413 1412 1411 1410 1409 1408 1407
1520 1518 1516 1514 1513 1511 1509 1507 1505 1503 1502 1500 1498 1497 1495 1493 1492 1490 1488 1486 1484 1483 1481 1479 1477 1475 1473 1471 1469 1468 1466 1464 1462 1461 1459 1458 1456 1454 1453 1452 1451 1449 1448 1446 1444 1442 1440 1438 1436 1435 1433 1432 1430 1428 1426 1424 1423 1421 1419 1417 1416 1414 1412 1411 1409 1408 1407 1406 1405
1519 1517 1515 1513 1512 1510 1508 1506 1504 1502 1501 1499 1498 1496 1494 1493 1491 1489 1487 1485 1483 1482 1480 1478 1476 1474 1472 1470 1468 1466 1465 1463 1462 1460 1458 1457 1455 1453 1452 1451 1449 1448 1446 1444 1443 1440 1438 1437 1435 1433 1432 1431 1429 1427 1425 1423 1422 1420 1418 1416 1415 1413 1411 1410 1408 1407 1406 1405 1404
1518 1517 1515 1513 1511 1509 1507 1505 1503 1501 1500 1498 1497 1495 1493 1491 1489 1488 1486 1484 1482 1480 1478 1476 1475 1473 1471 1469 1467 1465 1463 1462 1460 1459 1457 1456 1454 1452 1451 1449 1447 1446 1444 1443 1441 1439 1437 1435 1433 1432 1431 1429 1428 1426 1424 1422 1420 1418 1417 1415 1414 1412 1410 1408 1407 1405 1404 1403 1402
1518 1516 1514 1512 1510 1508 1506 1504 1502 1501 1499 1498 1496 1494 1492 1490 1488 1487 1485 1483 1481 1479 1477 1475 1473 1472 1469 1468 1466 1464 1462 1461 1459 1458 1457 1455 1453 1451 1449 1448 1446 1444 1443 1441 1440 1438 1436 1434 1433 1431 1429 1428 1427 1425 1423 1421 1419 1418 1416 1414 1413 1411 1409 1408 1406 1404 1403 1402 1401
1517 1515 1513 1511 1509 1507 1505 1503 1502 1500 1498 1497 1495 1493 1491 1489 1488 1486 1484 1482 1480 1478 1476 1474 1472 1470 1468 1467 1465 1463 1461 1460 1458 1457 1455 1454 1452 1450 1448 1446 1445 1443 1442 1440 1439 1437 1435 1433 1432 1430 1428 1427 1425 1424 1422 1421 1419 1417 1415 1413 1412 1410 1408 1407 1405 1403 1402 1400 1399
1516 1514 1513 1511 1509 1507 1505 1503 1502 1500 1498 1496 1495 1493 1491 1489 1487 1485 1483 1481 1479 1477 1475 1473 1471 1469 1467 1465 1464 1462 1460 1459 1457 1456 1454 1453 1451 1449 1447 1446 1444 1443 1441 1439 1438 1436 1434 1433 1431 1429 1427 1426 1424 1423 1421 1420 1418 1416 1415 1413 1411 1409 1408 1406 1404 1403 1401 1400 1398
1516 1514 1512 1510 1508 1507 1505 1503 1501 1499 1498 1496 1494 1492 1490 1488 1486 1484 1483 1480 1478 1476 1474 1472 1470 1468 1466 1464 1463 1461 1459 1458 1456 1455 1453 1451 1450 1448 1446 1445 1443 1442 1440 1438 1437 1435 1433 1432 1430 1428 1427 1425 1423 1422 1420 1419 1417 1416 1414 1413 1411 1409 1407 1406 1404 1402 1401 1399 1398
1515 1513 1512 1510 1508 1506 1505 1503 1501 1499 1498 1496 1494 1492 1490 1488 1486 1484 1482 1480 1478 1475 1473 1471 1469 1467 1465 1463 1461 1460 1458 1457 1455 1454 1452 1450 1448 1447 1445 1444 1443 1441 1439 1438 1436 1434 1432 1431 1429 1427 1426 1424 1423 1421 1420 1418 1417 1415 1413 1412 1410 1409 1407 1405 1404 1402 1400 1399 1397
1515 1513 1511 1510 1508 1506 1504 1503 1501 1499 1497 1495 1493 1491 1489 1488 1485 1483 1482 1479 1477 1475 1472 1470 1468 1466 1464 1462 1461 1459 1458 1456 1454 1453 1451 1449 1448 1446 1444 1443 1442 1440 1439 1437 1435 1433 1431 1430 1428 1427 1425 1424 1423 1421 1419 1418 1416 1415 1413 1412 1410 1408 1407 1405 1403 1402 1400 1399 1397
1514 1513 1511 1509 1507 1505 1504 1502 1500 1498 1497 1495 1493 1491 1489 1487 1485 1483 1481 1479 1477 1474 1472 1470 1468 1466 1464 1462 1460 1458 1457 1455 1453 1452 1450 1449 1447 1445 1444 1442 1441 1439 1438 1436 1435 1433 1431 1429 1428 1427 1425 1424 1422 1420 1419 1417 1416 1414 1413 1411 1409 1408 1407 1405 1403 1402 1400 1399 1397
1514 1512 1511 1509 1507 1505 1503 1502 1500 1498 1496 1494 1492 1490 1488 1486 1485 1483 1480 1478 1476 1474 1472 1469 1467 1465 1463 1461 1459 1458 1456 1455 1453 1451 1450 1448 1446 1445 1443 1442 1440 1438 1437 1436 1434 1432 1430 1428 1428 1427 1425 1423 1422 1420 1418 1417 1415 1414 1412 1411 1409 1408 1406 1405 1403 1402 1400 1399 1397
1514 1512 1510 1508 1507 1505 1503 1501 1499 1498 1496 1494 1492 1490 1488 1486 1484 1482 1480 1478 1476 1474 1472 1469 1467 1464 1462 1460 1459 1457 1456 1454 1453 1451 1449 1448 1446 1444 1443 1441 1439 1437 1436 1435 1433 1430 1428 1427 1428 1427 1425 1423 1422 1420 1418 1417 1415 1413 1412 1410 1409 1408 1406 1404 1403 1402 1400 1398 1397
1513 1512 1510 1508 1506 1504 1503 1501 1499 1497 1495 1493 1492 1489 1488 1486 1484 1482 1480 1478 1476 1473 1471 1469 1467 1464 1462 1460 1458 1457 1455 1454 1452 1451 1449 1447 1445 1443 1442 1440 1438 1436 1435 1433 1432 1429 1427 1426 1428 1427 1425 1423 1422 1420 1418 1417 1415 1413 1412 1410 1409 1408 1406 1404 1403 1401 1400 1398 1397
1513 1511 1509 1508 1506 1504 1502 1500 1498 1497 1495 1493 1491 1489 1487 1485 1483 1482 1480 1478 1476 1473 1471 1469 1466 1464 1462 1460 1458 1457 1455 1453 1452 1450 1448 1447 1445 1443 1441 1439 1437 1435 1434 1432 1430 1428 1426 1425 1427 1426 1425 1423 1421 1420 1418 1417 1415 1413 1412 1410 1409 1407 1406 1404 1403 1401 1399 1398 1396
1513 1511 1509 1507 1505 1503 1502 1500 1498 1497 1495 1493 1491 1489 1487 1485 1483 1481 1479 1477 1475 1473 1471 1468 1466 1464 1462 1460 1458 1456 1454 1453 1451 1449 1448 1446 1444 1442 1440 1438 1437 1435 1433 1431 1430 1428 1426 1425 1425 1425 1424 1422 1421 1419 1418 1416 1415 1413 1412 1410 1408 1407 1405 1404 1403 1401 1399 1398 1396
1513 1510 1508 1507 1505 1503 1501 1500 1498 1496 1494 1492 1490 1488 1487 1485 1483 1481 1479 1477 1475 1473 1471 1468 1466 1463 1461 1459 1458 1456 1454 1453 1451 1449 1447 1445 1444 1442 1440 1438 1436 1434 1433 1431 1429 1428 1426 1424 1423 1423 1422 1421 1420 1419 1418 1416 1414 1413 1411 1410 1408 1407 1405 1404 1402 1401 1399 1398 1396
1512 1510 1508 1507 1505 1503 1501 1499 1498 1496 1494 1492 1490 1488 1486 1484 1482 1480 1478 1477 1475 1473 1470 1468 1466 1463 1461 1459 1458 1456 1454 1452 1451 1449 1447 1445 1443 1442 1440 1438 1436 1434 1432 1430 1429 1427 1425 1423 1423 1422 1421 1420 1419 1418 1417 1416 1414 1413 1411 1410 1408 1407 1405 1403 1402 1401 1399 1398 1396
1511 1510 1508 1506 1504 1503 1501 1499 1497 1495 1493 1492 1490 1488 1486 1484 1482 1480 1478 1476 1474 1472 1470 1468 1466 1463 1462 1459 1458 1456 1454 1452 1451 1449 1448 1446 1443 1442 1440 1438 1436 1433 1432 1430 1428 1427 1425 1424 1423 1422 1420 1419 1418 1418 1417 1416 1414 1413 1411 1410 1408 1407 1405 1404 1402 1401 1400 1398 1397
1511 1509 1508 1506 1504 1503 1501 1499 1497 1495 1493 1491 1489 1487 1485 1483 1482 1480 1478 1476 1474 1472 1470 1468 1466 1464 1462 1460 1458 1456 1454 1453 1451 1449 1448 1446 1444 1442 1440 1438 1436 1433 1432 1430 1428 1427 1426 1426 1424 1422 1420 1419 1418 1417 1416 1416 1414 1413 1412 1410 1409 1407 1406 1404 1403 1402 1400 1399 1397
1511 1509 1507 1505 1504 1502 1500 1498 1496 1494 1493 1491 1489 1487 1485 1483 1481 1479 1478 1476 1474 1472 1470 1468 1466 1464 1462 1460 1458 1456 1455 1453 1451 1449 1448 1446 1444 1442 1440 1438 1435 1433 1431 1430 1428 1427 1426 1427 1425 1423 1421 1419 1418 1417 1416 1415 1414 1413 1412 1410 1409 1408 1406 1405 1403 1403 1402 1400 1398
1511 1509 1507 1505 1503 1502 1500 1498 1496 1494 1492 1490 1488 1487 1485 1483 1481 1479 1477 1475 1473 1472 1470 1468 1467 1465 1463 1461 1459 1457 1455 1453 1451 1449 1448 1446 1444 1442 1440 1438 1435 1433 1432 1430 1428 1427 1426 1427 1425 1423 1421 1419 1418 1417 1416 1415 1414 1413 1412 1411 1410 1408 1407 1405 1404 1403 1402 1401 1399
1510 1508 1507 1505 1503 1501 1499 1498 1496 1494 1492 1490 1488 1486 1484 1483 1481 1479 1477 1475 1474 1472 1470 1468 1467 1465 1463 1462 1460 1458 1455 1453 1451 1450 1448 1446 1444 1442 1440 1438 1436 1433 1432 1430 1429 1427 1426 1426 1424 1422 1420 1419 1418 1417 1416 1415 1414 1413 1413 1411 1410 1409 1408 1406 1405 1404 1403 1402 1400
1510 1508 1506 1504 1503 1501 1499 1497 1495 1493 1491 1489 1488 1486 1484 1482 1481 1479 1477 1475 1473 1472 1470 1468 1466 1465 1463 1461 1460 1458 1456 1453 1452 1450 1448 1447 1445 1443 1440 1438 1436 1434 1432 1431 1429 1427 1425 1425 1423 1421 1419 1419 1418 1417 1416 1415 1415 1414 1413 1412 1411 1409 1408 1407 1406 1405 1404 1403 1401
1509 1507 1505 1504 1502 1500 1498 1496 1494 1493 1491 1489 1487 1486 1484 1482 1480 1478 1477 1475 1473 1471 1469 1468 1466 1464 1463 1461 1460 1458 1456 1454 1452 1450 1449 1447 1445 1443 1441 1439 1437 1435 1433 1432 1430 1427 1425 1424 1422 1420 1419 1419 1418 1417 1417 1416 1415 1414 1413 1413 1412 1410 1409 1408 1407 1406 1405 1404 1403
1508 1507 1505 1503 1501 1499 1497 1496 1494 1492 1490 1488 1487 1485 1483 1482 1479 1478 1476 1474 1473 1471 1469 1468 1466 1464 1463 1461 1460 1458 1456 1454 1453 1451 1449 1447 1445 1443 1441 1439 1437 1435 1433 1432 1430 1428 1426 1423 1421 1420 1419 1419 1418 1418 1417 1416 1415 1414 1414 1413 1412 1411 1410 1409 1408 1407 1406 1405 1404
1508 1506 1504 1502 1500 1498 1497 1495 1493 1491 1489 1488 1486 1484 1483 1481 1479 1477 1476 1474 1473 1471 1469 1468 1466 1464 1463 1461 1460 1458 1457 1455 1453 1451 1449 1448 1445 1443 1441 1440 1438 1436 1434 1432 1430 1429 1427 1423 1421 1420 1420 1419 1419 1418 1417 1416 1416 1415 1414 1414 1413 1412 1411 1410 1409 1408 1407 1406 1405
1507 1505 1503 1501 1499 1498 1496 1494 1492 1490 1488 1487 1485 1484 1482 1481 1479 1477 1475 1473 1472 1470 1468 1467 1465 1464 1462 1461 1459 1458 1457 1455 1453 1452 1450 1448 1446 1444 1442 1440 1438 1436 1434 1432 1431 1430 1428 1425 1422 1421 1421 1420 1420 1419 1418 1417 1416 1416 1415 1414 1413 1412 1411 1411 1410 1409 1408 1406 1405
1507 1505 1503 1500 1498 1497 1495 1493 1491 1489 1488 1486 1485 1483 1482 1480 1478 1477 1475 1473 1471 1469 1468 1466 1465 1463 1462 1460 1459 1458 1457 1456 1454 1452 1450 1448 1446 1444 1442 1440 1438 1436 1434 1433 1432 1431 1429 1426 1423 1422 1422 1421 1420 1420 1419 1418 1417 1416 1416 1415 1414 1413 1413 1412 1411 1410 1409 1408 1407
1506 1504 1502 1500 1498 1496 1494 1492 1490 1489 1487 1486 1484 1483 1481 1480 1478 1476 1475 1473 1471 1469 1468 1466 1465 1463 1462 1460 1458 1457 1456 1456 1454 1453 1451 1449 1447 1445 1443 1441 1439 1437 1435 1433 1433 1431 1429 1427 1424 1423 1422 1422 1421 1420 1420 1418 1418 1417 1417 1416 1415 1414 1414 1413 1413 1412 1410 1409 1408
1505 1503 1501 1499 1497 1495 1493 1492 1490 1488 1487 1485 1483 1482 1481 1479 1478 1476 1474 1473 1471 1469 1468 1466 1464 1463 1462 1460 1458 1457 1456 1456 1454 1453 1451 1449 1448 1446 1444 1442 1440 1438 1436 1435 1433 1432 1430 1428 1425 1424 1423 1422 1422 1421 1420 1420 1419 1418 1418 1417 1416 1416 1415 1415 1414 1413 1412 1411 1410
1504 1502 1500 1498 1497 1495 1493 1491 1489 1488 1486 1484 1483 1481 1480 1479 1477 1476 1474 1473 1471 1469 1468 1466 1465 1463 1462 1460 1458 1457 1456 1455 1454 1453 1452 1450 1448 1446 1444 1443 1441 1439 1437 1436 1434 1433 1431 1429 1427 1425 1423 1423 1422 1422 1421 1421 1420 1419 1418 1418 1418 1417 1417 1416 1415 1414 1413 1413 1412
1503 1502 1500 1498 1496 1494 1492 1490 1488 1487 1486 1484 1483 1481 1480 1478 1477 1476 1474 1473 1471 1469 1468 1466 1464 1463 1462 1460 1459 1457 1456 1455 1454 1453 1452 1450 1448 1447 1445 1443 1442 1440 1438 1437 1435 1434 1433 1431 1428 1426 1424 1423 1423 1423 1422 1421 1421 1420 1419 1419 1418 1418 1418 1417 1417 1416 1415 1414 1413